Eagle, CO

10:59 AM MDT on May 26, 2017 (GMT -0600)
Eagle County Regional

Weather History for KEGE - February, 2013

Change the Weather History Date:

Wednesday, February 27, 2013

  Actual Average Record
Temperature  
Mean Temperature 18 °F -  
Max Temperature 30 °F 45 °F 57 °F (1990)
Min Temperature 5 °F 15 °F -17 °F (1962)
Degree Days  
Heating Degree Days 48    
Moisture  
Dew Point 8 °F    
Average Humidity 77    
Maximum Humidity 100    
Minimum Humidity 37    
Precipitation  
Precipitation 0.00 in - - ()
Sea Level Pressure  
Sea Level Pressure 30.21 in    
Wind  
Wind Speed 4 mph (ESE)    
Max Wind Speed 14 mph    
Max Gust Speed -    
Visibility 9 miles    
Events      
Averages and records for this station are not official NWS values.
T = Trace of Precipitation, MM = Missing Value Source: NWS Daily Summary

Daily Weather History Graph

Daily Weather History Graph

Search for Another Location

Airport or City:

Trip Planner

Search our weather history database for the weather conditions in past years. The results will help you decide how hot, cold, wet, or windy it might be!

Date:

Astronomy

Feb. 27, 2013 Rise Set
Actual Time 6:43 AM MST 5:58 PM MST
Civil Twilight 6:16 AM MST 6:25 PM MST
Nautical Twilight 5:44 AM MST 6:56 PM MST
Astronomical Twilight 5:13 AM MST 7:27 PM MST
Moon 8:21 PM MST (2/27) 7:20 AM MST (2/27)
Length of Visible Light 12h 09m
Length of Day
11h 14m
Waning Gibbous, 96% of the Moon is Illuminated
Feb 27
Waning Gibbous
Mar 4
Last Quarter
Mar 11
New
Mar 19
First Quarter
Mar 27
Full

Hourly Weather History & Observations

Time (MST) Temp. Windchill Dew Point Humidity Pressure Visibility Wind Dir Wind Speed Gust Speed Precip Events Conditions
12:15 AM 15.8 °F 10.2 °F 15.8 °F 100% 30.14 in 2.5 mi ENE 3.5 mph - N/A   Unknown
12:35 AM 15.8 °F 10.2 °F 14.0 °F 93% 30.14 in 4.0 mi East 3.5 mph - N/A   Unknown
12:55 AM 15.8 °F 10.2 °F 14.0 °F 93% 30.15 in 3.0 mi East 3.5 mph - N/A   Unknown
1:15 AM 14.0 °F 6.5 °F 12.2 °F 93% 30.15 in 3.0 mi East 4.6 mph - N/A   Unknown
1:35 AM 14.0 °F 6.5 °F 12.2 °F 93% 30.16 in 2.0 mi ESE 4.6 mph - N/A   Unknown
1:55 AM 10.4 °F 2.2 °F 8.6 °F 92% 30.16 in 10.0 mi ESE 4.6 mph - N/A   Unknown
2:15 AM 12.2 °F 4.3 °F 10.4 °F 92% 30.17 in 10.0 mi ENE 4.6 mph - N/A   Unknown
2:35 AM 8.6 °F 2.0 °F 6.8 °F 92% 30.16 in 10.0 mi ESE 3.5 mph - N/A   Unknown
2:55 AM 6.8 °F -3.5 °F 5.0 °F 92% 30.17 in 10.0 mi East 5.8 mph - N/A   Unknown
3:15 AM 5.0 °F -5.6 °F 3.2 °F 92% 30.17 in 10.0 mi ESE 5.8 mph - N/A   Unknown
3:35 AM 6.8 °F -4.8 °F 5.0 °F 92% 30.18 in 10.0 mi East 6.9 mph - N/A   Unknown
3:55 AM 6.8 °F -6.9 °F 3.2 °F 85% 30.19 in 10.0 mi East 9.2 mph - N/A   Unknown
4:15 AM 6.8 °F -5.9 °F 3.2 °F 85% 30.20 in 10.0 mi East 8.1 mph - N/A   Unknown
4:35 AM 6.8 °F -4.8 °F 3.2 °F 85% 30.20 in 10.0 mi East 6.9 mph - N/A   Unknown
4:55 AM 6.8 °F -4.8 °F 5.0 °F 92% 30.21 in 10.0 mi East 6.9 mph - N/A   Unknown
5:15 AM 8.6 °F 0.1 °F 6.8 °F 92% 30.22 in 10.0 mi ESE 4.6 mph - N/A   Unknown
5:55 AM 6.8 °F - 5.0 °F 92% 30.22 in 6.0 mi Calm Calm - N/A   Unknown
6:15 AM 8.6 °F - 6.8 °F 92% 30.23 in 6.0 mi Calm Calm - N/A   Unknown
6:35 AM 6.8 °F - 3.2 °F 85% 30.24 in 5.0 mi Calm Calm - N/A   Unknown
6:50 AM 6.8 °F - 3.2 °F 85% 30.25 in 10.0 mi Calm Calm - N/A   Mostly Cloudy
9:50 AM 12.2 °F - 8.6 °F 85% 30.28 in 10.0 mi Calm Calm - N/A   Partly Cloudy
10:50 AM 26.6 °F - 15.8 °F 64% 30.26 in 10.0 mi Calm Calm - N/A   Partly Cloudy
11:50 AM 23.0 °F - 12.2 °F 63% 30.25 in 10.0 mi Calm Calm - N/A   Partly Cloudy
12:50 PM 26.6 °F - 12.2 °F 55% 30.22 in 10.0 mi Calm Calm - N/A   Partly Cloudy
1:50 PM 28.4 °F - 10.4 °F 47% 30.20 in 10.0 mi Calm Calm - N/A   Partly Cloudy
2:50 PM 30.2 °F - 8.6 °F 40% 30.19 in 10.0 mi Calm Calm - N/A   Partly Cloudy
3:50 PM 30.2 °F 25.4 °F 6.8 °F 37% 30.18 in 10.0 mi West 4.6 mph - N/A   Partly Cloudy
4:50 PM 30.2 °F 24.3 °F 6.8 °F 37% 30.18 in 10.0 mi SW 5.8 mph - N/A   Partly Cloudy
5:50 PM 26.6 °F 15.2 °F 6.8 °F 43% 30.21 in 10.0 mi WSW 13.8 mph - N/A   Partly Cloudy
6:50 PM 26.6 °F 20.0 °F 12.2 °F 55% 30.24 in 10.0 mi West 5.8 mph - N/A   Partly Cloudy
7:50 PM 21.2 °F - 8.6 °F 58% 30.26 in 10.0 mi Calm Calm - N/A   Partly Cloudy
8:50 PM 17.6 °F 9.3 °F 8.6 °F 68% 30.28 in 10.0 mi ENE 5.8 mph - N/A   Partly Cloudy
9:50 PM 15.8 °F 7.2 °F 8.6 °F 73% 30.28 in 10.0 mi East 5.8 mph - N/A   Partly Cloudy
10:50 PM 14.0 °F 6.5 °F 6.8 °F 73% 30.28 in 10.0 mi SE 4.6 mph - N/A   Partly Cloudy
11:15 PM 12.2 °F - 5.0 °F 73% 30.29 in 10.0 mi Calm Calm - N/A   Unknown
11:35 PM 10.4 °F - 3.2 °F 73% 30.29 in 10.0 mi Calm Calm - N/A   Unknown
11:55 PM 10.4 °F 2.2 °F 3.2 °F 73% 30.29 in 10.0 mi SE 4.6 mph - N/A   Unknown